Temp
8 8 8 8 8 8 8 8 8 9 9 9 9 9 9 9 9 10 10 11 10 10 11 10 10 10 9 9 8 8 8 8 8 8 7 7 7 7 7 6 6 5 5 3 2 2 2 2 2 2 3 3 4 4 4 5 5 4 4 5 5 5 5 6 6 7 7 7 8 7 7 6 6 6 6 7 7 7 7 7 7 8 8 8 9 10
8 8 8 8 8 8 8 8 8 9 9 10 9 9 9 8 9 10 9 10 10 10 10 10 9 10 10 10 8 7 7 7 8 8 8 8 7 7 7 7 6 6 4 3 2 2 2 2 2 2 2 2 3 4 4 4 5 5 4 4 5 5 5 6 5 5 6 6 7 8 7 6 5 5 5 5 5 6 6 6 7 7 7 7 9 9
8 8 8 8 8 8 8 8 8 9 9 9 9 9 9 8 8 9 9 9 9 10 10 9 9 10 10 10 8 7 7 7 8 8 8 8 8 7 7 7 7 6 4 3 2 2 2 1 2 2 2 2 3 3 3 4 4 4 4 4 5 5 6 6 5 5 6 6 7 8 7 6 5 5 5 5 5 5 5 6 6 6 6 7 8 8
7 8 8 8 8 8 9 8 8 9 9 9 9 8 8 8 8 9 10 9 9 9 9 9 8 9 9 9 8 7 7 7 7 7 7 7 7 7 7 7 7 6 5 3 3 2 2 1 1 2 2 2 2 2 3 4 4 4 4 4 4 4 5 5 5 5 6 6 6 6 6 6 5 5 4 4 4 4 5 5 5 5 5 6 7 7
7 8 8 8 8 8 8 8 8 9 9 8 8 8 8 8 8 9 8 8 9 9 8 9 8 8 9 9 9 8 6 6 6 6 6 6 6 6 7 7 7 6 5 4 3 3 2 2 1 1 1 1 1 2 2 3 3 4 4 4 4 4 4 5 5 5 5 5 5 4 4 4 4 3 3 3 3 3 4 4 4 4 4 5 5 6
7 8 7 8 8 8 8 8 8 8 8 8 8 9 8 9 8 8 7 7 8 9 9 9 8 9 10 9 9 8 6 7 7 6 6 6 6 6 6 6 7 6 5 4 4 3 2 2 1 1 1 1 1 1 1 2 2 3 4 4 4 4 4 4 4 4 4 4 4 4 4 3 3 2 2 3 2 3 3 4 4 3 4 4 5 5
7 7 7 8 8 8 7 7 8 8 7 7 8 8 8 8 8 8 8 7 8 8 8 8 7 8 9 9 9 9 8 8 7 6 6 6 5 5 5 5 6 6 5 5 4 3 2 2 2 1 1 1 1 1 1 1 2 2 3 3 3 4 4 4 4 4 4 3 3 3 3 3 3 2 2 2 3 3 3 4 4 3 3 4 4 4
7 7 7 7 7 7 7 7 8 8 7 7 8 8 8 9 8 8 8 7 8 8 8 8 7 7 7 8 10 9 8 8 6 5 5 5 5 5 5 5 5 6 5 5 4 3 2 2 2 1 1 1 1 1 1 1 1 2 2 2 2 3 3 3 4 4 4 4 3 2 2 2 2 2 1 1 2 2 2 3 3 3 3 3 4 4
6 7 7 6 6 7 7 7 8 8 7 8 8 7 8 8 8 8 8 7 7 7 7 7 7 6 6 8 9 7 6 7 7 7 6 5 5 5 5 6 5 5 5 5 4 3 3 2 2 1 1 1 1 0 0 1 1 1 2 2 2 2 3 3 3 3 3 3 3 2 2 1 1 1 0 1 1 1 2 2 2 2 3 3 4 5
6 6 6 6 6 6 7 7 7 7 7 8 7 7 8 8 8 8 7 7 7 6 6 7 7 6 6 8 8 6 6 7 8 8 7 7 6 5 5 5 5 5 5 5 4 3 3 2 2 1 1 0 0 0 0 0 0 1 1 1 2 2 2 2 3 3 3 3 3 3 3 2 1 1 1 1 1 1 2 3 3 3 3 3 4 4
5 5 5 6 6 6 7 7 7 7 7 7 7 7 8 8 7 7 6 7 7 6 7 8 7 6 6 8 9 8 8 8 9 9 8 8 7 5 5 5 6 5 5 4 4 3 2 2 1 1 0 -0 -0 -0 -0 -0 -0 -0 -0 -0 0 1 1 1 2 2 3 3 3 3 3 3 3 2 1 1 1 1 2 2 2 3 3 3 3 4
5 5 5 6 6 6 6 6 6 7 7 7 7 7 8 7 7 6 6 6 6 6 7 7 7 6 5 8 9 9 10 10 9 10 10 9 8 6 5 5 5 5 5 4 3 2 1 1 0 0 -0 -1 -1 -1 -1 -1 -1 -1 -1 -1 -1 -0 -0 0 1 1 2 2 3 3 3 4 4 3 2 2 1 1 2 2 2 2 3 3 3 3
6 5 4 5 6 6 6 6 6 7 7 7 6 7 6 5 5 6 5 5 5 5 6 6 7 6 6 8 9 9 9 10 10 10 10 10 10 8 5 5 5 5 5 4 3 2 1 0 -0 -1 -1 -1 -1 -1 -1 -1 -1 -1 -1 -1 -1 -1 -0 -0 0 1 1 2 3 3 3 3 3 3 3 3 2 2 3 3 2 2 1 1 1 2
7 5 3 5 6 6 6 6 6 7 7 6 6 6 6 5 5 5 4 4 4 6 7 7 6 6 7 9 9 9 10 10 10 10 10 10 10 9 7 5 4 5 5 4 3 2 1 0 -0 -1 -1 -1 -2 -2 -2 -2 -1 -1 -1 -1 -1 -1 -1 -0 0 1 1 1 2 2 2 2 2 2 2 2 2 2 2 2 2 1 1 1 1 2
7 8 6 6 7 6 6 6 7 7 6 6 6 6 6 6 6 6 5 5 6 6 7 7 6 7 8 10 11 11 11 10 10 10 10 10 10 10 7 5 4 4 4 4 3 2 1 1 -0 -1 -1 -1 -2 -2 -2 -2 -2 -1 -1 -1 -1 -1 -1 -0 0 1 1 1 1 1 1 1 1 1 1 1 1 1 2 2 2 1 1 1 1 1
6 8 7 6 6 6 6 6 7 7 7 6 6 6 6 6 7 6 5 6 6 5 6 6 7 8 10 11 11 11 11 10 10 10 10 10 10 9 7 5 4 4 4 4 3 2 2 0 -0 -1 -1 -2 -2 -2 -2 -2 -2 -1 -1 -1 -1 -1 -0 -0 0 0 0 0 0 0 0 0 0 1 1 1 1 1 2 2 1 1 1 1 1 1
6 8 7 6 5 6 7 7 6 7 7 6 5 6 6 6 7 6 5 5 5 5 6 7 7 9 10 11 12 12 12 11 10 9 9 10 9 8 6 5 4 4 4 4 3 3 1 0 -1 -1 -1 -2 -2 -3 -2 -2 -2 -1 -1 -1 -1 -1 -1 -1 -0 0 0 0 0 0 0 0 0 1 1 1 0 0 0 0 0 0 0 0 0 0
6 7 7 6 6 6 6 6 6 7 7 6 6 7 7 6 7 6 5 6 6 5 7 8 8 9 9 10 11 11 11 11 11 10 9 9 9 8 6 6 5 4 5 4 3 2 1 0 -1 -1 -1 -2 -2 -3 -2 -2 -2 -2 -1 -1 -1 -1 -1 -1 -0 -0 -0 0 0 -0 -0 0 0 0 1 1 0 0 0 -0 -0 -0 -1 -1 -0 -0
6 7 7 6 6 6 5 6 6 6 7 7 6 7 7 6 6 6 6 6 6 5 6 8 8 9 9 9 10 10 10 11 11 11 9 9 8 7 7 6 5 4 4 4 3 2 1 0 -1 -1 -1 -2 -2 -3 -2 -2 -2 -2 -2 -1 -1 -1 -1 -1 -1 -1 -0 -0 0 0 0 1 1 1 1 1 1 0 0 0 -0 -0 -1 -1 -1 -1
6 6 7 6 6 6 6 6 6 6 6 6 6 6 7 7 6 6 6 6 6 6 7 8 8 9 10 11 11 11 11 11 11 11 10 9 8 7 7 6 5 4 4 4 3 2 1 0 -1 -1 -1 -2 -2 -3 -3 -3 -3 -2 -2 -2 -2 -1 -1 -1 -1 -1 -0 0 0 0 1 1 1 1 1 1 0 0 1 1 1 0 -0 -1 -1 -1
6 6 6 6 7 7 7 6 7 7 6 6 6 6 6 6 6 6 6 7 7 7 7 7 8 10 12 12 12 12 12 12 11 10 9 9 8 8 7 6 5 4 4 4 3 2 1 -0 -1 -1 -1 -2 -2 -3 -3 -3 -3 -3 -2 -2 -2 -2 -1 -1 -1 -0 -0 -0 -0 0 0 0 0 0 -0 -0 -0 0 1 1 1 1 0 -1 -1 -1
6 6 5 6 6 6 7 7 7 8 7 7 6 6 7 7 7 6 6 7 7 7 7 7 7 10 12 13 13 12 11 11 10 8 8 8 8 7 7 6 5 4 4 3 3 2 1 -0 -1 -1 -2 -2 -2 -3 -3 -3 -3 -3 -3 -2 -2 -2 -2 -1 -1 -1 -1 -1 -1 -0 -0 -1 -1 -1 -1 -1 -1 -1 -0 -0 0 0 0 -1 -1 -1
6 6 5 6 6 7 8 8 7 7 8 7 7 7 7 7 7 6 6 7 8 7 8 8 7 10 12 13 13 12 10 9 8 7 7 8 7 6 6 5 4 4 3 3 2 1 0 -0 -1 -1 -2 -2 -2 -3 -3 -3 -3 -3 -3 -2 -2 -2 -2 -1 -1 -1 -1 -1 -2 -2 -2 -2 -2 -2 -2 -2 -2 -1 -1 -1 -1 -0 0 -0 -1 -1
6 6 5 6 7 7 7 7 7 7 7 7 7 7 7 7 7 7 7 8 8 7 8 8 8 10 12 12 11 10 9 8 8 7 7 7 6 5 5 4 4 3 3 2 2 1 0 -0 -1 -1 -1 -2 -2 -2 -3 -3 -3 -3 -2 -2 -2 -2 -2 -2 -2 -2 -2 -2 -2 -2 -2 -3 -3 -3 -3 -2 -2 -2 -2 -2 -1 -1 -0 -0 -0 -1
6 6 6 6 6 7 7 8 7 7 7 7 7 7 7 7 7 7 7 7 7 8 9 8 8 11 12 12 10 10 10 10 9 7 7 6 5 4 4 3 3 2 2 1 1 1 -0 -1 -1 -1 -1 -1 -2 -2 -2 -2 -2 -2 -2 -2 -2 -2 -2 -2 -2 -2 -2 -2 -3 -3 -3 -3 -3 -2 -2 -2 -2 -2 -2 -2 -1 -1 -1 -0 -0 -1
6 6 6 6 6 7 9 10 9 8 7 7 7 7 7 7 7 7 7 7 7 9 9 8 9 11 12 12 12 11 11 11 9 7 6 6 5 4 3 3 2 2 1 1 1 0 -0 -0 -1 -1 -1 -1 -1 -1 -2 -2 -2 -2 -2 -2 -2 -2 -2 -2 -2 -2 -2 -3 -3 -3 -3 -3 -3 -2 -2 -2 -2 -2 -2 -2 -1 -1 -1 -0 -0 -1
6 5 6 6 7 7 8 9 9 8 7 7 7 7 7 7 7 7 7 7 8 9 9 9 9 10 11 11 12 12 12 11 10 8 7 5 4 3 3 2 2 2 1 1 1 0 -0 -0 -1 -1 -1 -1 -1 -1 -1 -2 -2 -2 -2 -2 -2 -2 -2 -2 -2 -3 -3 -3 -3 -3 -3 -3 -3 -3 -2 -2 -2 -2 -2 -2 -1 -1 -1 -1 -0 -1
5 5 5 6 6 7 7 8 8 7 7 7 7 7 7 7 7 7 7 8 9 8 8 9 10 9 10 11 11 12 11 10 10 9 8 6 4 3 3 2 2 2 1 1 1 0 -0 -0 -1 -1 -1 -1 -1 -1 -1 -2 -2 -2 -1 -1 -2 -2 -2 -2 -2 -3 -3 -3 -3 -3 -3 -3 -3 -3 -2 -2 -3 -3 -2 -2 -1 -1 -1 -1 -1 -1
5 5 5 5 6 6 6 6 6 6 6 6 6 6 7 7 7 7 7 7 8 8 8 9 10 9 10 11 11 11 10 10 9 8 7 5 4 3 3 2 2 1 1 1 0 0 0 -0 -1 -1 -1 -1 -1 -1 -1 -1 -1 -1 -1 -1 -1 -2 -2 -2 -3 -3 -3 -3 -3 -3 -3 -3 -3 -3 -3 -3 -3 -3 -2 -2 -1 -1 -1 -1 -1 -2
5 5 5 5 5 5 5 6 6 6 5 6 6 6 6 6 6 7 7 7 8 7 8 9 8 8 9 10 10 10 10 8 7 6 6 5 4 4 3 2 2 1 1 1 1 0 0 -0 -0 -1 -1 -1 -1 -1 -1 -1 -1 -1 -1 -1 -1 -2 -2 -2 -3 -3 -3 -3 -3 -3 -4 -3 -3 -3 -4 -4 -4 -3 -3 -2 -2 -2 -2 -2 -2 -2
5 5 4 5 5 5 6 6 6 5 5 5 5 6 6 6 6 6 6 7 7 7 7 8 7 7 9 9 9 9 8 8 8 7 7 5 4 4 3 2 2 2 1 1 1 0 0 0 -0 -1 -1 -1 -1 -1 -1 -1 -1 -1 -1 -1 -1 -2 -2 -2 -3 -3 -3 -3 -3 -4 -3 -3 -3 -4 -4 -4 -4 -4 -3 -3 -2 -2 -2 -3 -3 -3
4 4 4 5 5 6 6 6 6 5 5 5 7 8 7 6 6 6 6 6 7 7 7 7 7 8 9 9 10 10 9 9 9 9 7 5 4 4 4 3 2 2 2 1 1 1 0 0 -0 -0 -1 -1 -1 -1 -1 -1 -1 -1 -1 -1 -1 -2 -2 -3 -3 -3 -3 -3 -3 -4 -3 -3 -4 -4 -4 -4 -4 -4 -4 -3 -3 -3 -3 -3 -3 -3
3 4 5 5 5 6 6 5 5 6 7 9 11 11 9 8 6 6 7 7 7 7 8 7 8 9 10 10 10 11 11 12 11 10 8 7 5 4 4 3 3 2 2 2 1 1 1 0 0 -0 -0 -0 -1 -1 -1 -1 -1 -1 -1 -1 -1 -2 -2 -3 -3 -3 -3 -3 -3 -4 -4 -3 -4 -4 -5 -4 -4 -4 -4 -4 -4 -3 -3 -3 -3 -3
2 3 4 4 5 6 6 5 6 7 10 13 12 11 11 10 9 8 9 8 7 7 8 9 9 10 9 9 10 11 11 12 11 9 8 8 6 5 4 4 3 3 2 2 2 1 1 1 0 0 0 0 -0 -0 -0 -0 -1 -1 -1 -1 -2 -2 -2 -3 -3 -3 -3 -3 -4 -4 -4 -4 -4 -4 -5 -5 -5 -5 -4 -4 -4 -4 -4 -4 -4 -4
2 3 3 3 4 5 5 5 8 11 13 13 10 8 8 8 8 9 10 9 8 7 8 9 9 9 9 9 9 9 10 10 9 8 7 7 7 6 5 4 4 3 3 2 2 2 2 1 1 1 0 0 0 -0 -0 -0 -0 -1 -1 -1 -2 -2 -2 -3 -3 -3 -3 -4 -4 -4 -4 -4 -4 -5 -5 -5 -5 -5 -5 -4 -4 -4 -4 -4 -4 -4
3 3 3 3 3 5 5 6 10 12 11 10 9 6 6 7 7 9 10 11 11 8 7 8 9 8 8 8 8 8 8 8 8 8 8 7 6 7 6 5 4 4 4 3 3 2 2 1 1 1 1 1 0 0 0 -0 -0 -0 -1 -1 -1 -2 -2 -3 -3 -3 -3 -4 -4 -4 -4 -4 -4 -5 -5 -5 -5 -5 -5 -5 -4 -5 -5 -5 -4 -4
3 3 3 3 3 5 5 6 8 9 10 12 12 9 8 10 10 10 12 13 13 10 8 9 10 10 8 8 8 7 6 7 9 11 10 8 6 6 6 6 5 4 4 3 3 3 3 2 2 2 1 1 1 0 0 0 -0 -1 -1 -1 -2 -2 -2 -3 -3 -3 -3 -3 -4 -4 -4 -4 -4 -4 -5 -5 -5 -5 -5 -5 -5 -5 -5 -5 -5 -5
3 3 3 4 4 4 4 5 7 9 12 14 13 10 9 9 10 10 11 12 14 11 8 9 12 12 10 9 8 7 8 10 12 12 11 9 6 5 5 6 5 4 3 3 3 3 3 3 3 2 2 1 1 1 0 0 -0 -1 -1 -2 -2 -2 -3 -3 -3 -3 -3 -3 -3 -4 -4 -4 -4 -4 -5 -5 -5 -5 -5 -5 -5 -5 -5 -5 -5 -5
2 2 2 3 3 3 4 5 6 10 13 13 12 11 9 8 9 10 12 13 14 12 8 9 12 12 11 10 8 8 10 12 13 12 11 10 7 5 4 5 5 3 3 4 4 4 4 4 3 3 2 1 1 1 1 0 -0 -1 -1 -2 -2 -2 -3 -3 -3 -3 -3 -3 -3 -3 -4 -4 -4 -4 -5 -5 -5 -5 -5 -5 -6 -6 -6 -6 -6 -5
0 1 1 1 1 2 3 5 6 8 10 11 11 11 8 8 9 11 13 14 14 12 9 10 12 12 10 9 8 9 12 13 13 12 10 8 7 6 4 5 5 4 3 4 4 4 4 4 3 2 2 1 1 1 1 0 -0 -1 -1 -1 -2 -2 -2 -2 -2 -3 -3 -3 -3 -3 -3 -4 -4 -4 -4 -4 -5 -5 -5 -5 -6 -6 -6 -6 -6 -6
-1 0 0 0 1 1 2 4 5 6 9 10 11 10 8 9 10 12 14 15 14 13 11 10 12 11 10 9 9 11 13 12 11 10 8 8 9 8 5 2 2 3 3 3 5 5 4 4 3 3 2 2 2 2 1 1 -0 -1 -1 -1 -2 -2 -2 -2 -2 -2 -2 -2 -3 -3 -3 -4 -4 -4 -4 -4 -5 -5 -5 -6 -6 -6 -6 -6 -7 -7
0 0 -0 -0 1 1 2 3 3 6 9 9 8 8 8 10 12 13 13 12 13 14 12 10 11 11 10 11 12 12 13 11 9 9 8 8 9 10 8 4 3 4 4 3 4 4 3 3 3 2 3 2 2 2 1 0 -0 -0 -1 -1 -1 -1 -1 -1 -1 -2 -2 -2 -3 -3 -3 -3 -4 -4 -4 -4 -5 -5 -5 -5 -6 -6 -6 -6 -7 -7
3 3 1 -0 1 2 2 2 4 9 11 8 7 8 8 11 14 14 12 10 11 13 12 11 11 9 10 12 12 12 12 11 10 10 9 8 8 8 8 6 5 5 4 2 3 4 3 2 2 2 3 2 2 2 1 0 0 -0 -1 -1 -0 0 -0 -1 -1 -1 -2 -2 -2 -3 -3 -3 -4 -4 -4 -4 -4 -5 -5 -5 -6 -6 -6 -6 -7 -7
6 6 4 3 3 4 3 3 6 11 10 8 10 12 11 11 11 11 12 12 11 11 11 12 11 9 9 12 13 12 12 12 11 11 10 10 9 9 8 7 4 3 2 2 4 4 3 2 2 2 2 2 2 2 1 1 0 -0 -0 0 0 0 -0 -0 -1 -1 -2 -2 -2 -3 -3 -3 -3 -4 -4 -4 -4 -5 -5 -5 -6 -6 -6 -7 -7 -7
8 8 8 7 6 6 6 6 8 10 8 7 10 12 12 11 9 9 11 13 12 10 9 10 12 11 8 10 12 12 11 11 12 11 11 11 11 10 9 7 4 3 2 3 4 4 4 3 2 2 2 2 2 2 1 1 1 -0 0 1 1 0 0 -0 -1 -1 -2 -2 -2 -2 -3 -3 -3 -4 -4 -4 -4 -4 -5 -5 -6 -6 -6 -7 -7 -7
8 8 8 9 9 8 8 8 8 8 8 8 9 9 10 10 8 8 10 12 12 11 9 9 12 12 9 8 10 11 11 11 11 11 10 10 10 10 9 6 4 2 1 2 3 4 3 3 2 2 1 1 2 2 2 1 1 1 2 2 1 1 0 -0 -1 -1 -2 -2 -2 -2 -3 -3 -3 -4 -4 -4 -4 -4 -5 -5 -5 -6 -6 -7 -7 -7
8 8 7 8 9 9 10 11 10 9 9 10 9 8 9 8 7 7 9 10 11 10 10 9 10 11 9 8 9 11 11 10 10 11 10 9 10 10 9 9 6 2 0 2 4 4 3 2 1 1 1 1 1 2 1 1 1 2 3 2 1 1 1 -0 -0 -1 -2 -2 -2 -3 -3 -3 -3 -4 -4 -4 -4 -4 -5 -5 -5 -6 -6 -7 -7 -7
9 8 7 8 8 9 10 12 11 10 10 10 9 9 9 9 8 7 7 8 8 8 8 8 7 8 8 8 9 10 10 9 9 9 9 9 9 8 8 8 6 3 2 3 4 3 2 1 1 1 1 1 2 2 1 1 2 2 2 2 1 1 1 -0 -0 -1 -2 -2 -2 -3 -3 -3 -3 -4 -4 -4 -4 -5 -5 -5 -5 -6 -6 -6 -6 -7
9 8 8 8 8 8 9 10 10 9 10 10 10 9 9 9 8 7 6 6 6 7 7 6 6 6 7 8 8 8 8 8 8 8 8 8 7 7 7 6 3 2 3 4 3 3 3 2 1 1 1 1 2 2 1 1 2 2 2 2 1 1 0 -0 -1 -1 -1 -2 -2 -3 -3 -3 -3 -3 -4 -4 -4 -5 -5 -5 -5 -5 -5 -5 -5 -6
9 8 8 8 8 8 9 10 10 10 10 11 11 11 10 10 9 8 7 6 6 8 8 7 6 5 4 5 6 6 7 8 7 6 7 6 6 6 6 4 2 1 2 4 4 3 2 3 3 2 2 3 3 3 2 2 2 2 2 1 1 1 1 -0 -1 -1 -2 -2 -2 -3 -3 -3 -3 -4 -4 -4 -4 -5 -5 -5 -5 -5 -5 -5 -5 -5
9 9 9 8 8 9 10 11 11 11 11 11 11 11 12 11 10 9 8 7 8 8 7 7 7 7 6 5 4 4 6 7 7 6 6 6 5 4 4 3 2 1 2 3 3 1 1 2 2 1 2 3 3 3 3 3 3 3 2 1 1 1 1 0 -1 -2 -2 -2 -3 -3 -3 -3 -3 -4 -4 -4 -4 -5 -5 -5 -5 -5 -5 -5 -5 -5
Height
838 838 839 839 840 841 840 839 838 835 835 833 834 835 836 836 832 828 827 823 823 823 819 820 822 821 822 823 824 824 824 825 823 823 824 824 824 824 824 823 822 822 822 822 823 822 823 824 825 826 826 827 827 827 828 829 829 828 828 827 825 825 826 827 828 830 832 832 835 838 841 843 845 847 847 848 849 850 851 853 854 854 855 855 856 857
839 840 840 840 841 841 839 839 837 836 835 832 834 835 836 839 834 829 829 825 824 825 821 823 825 820 818 818 821 825 825 823 820 819 820 820 820 821 821 821 820 820 821 821 821 821 822 823 824 825 826 827 827 827 828 828 828 827 827 827 826 826 827 827 828 830 831 833 834 836 840 842 844 846 847 848 849 849 851 853 854 855 855 856 856 857
843 843 840 840 841 839 838 839 837 835 834 834 836 836 836 839 836 831 829 827 826 825 821 823 825 818 814 816 820 823 821 818 816 815 815 815 816 817 816 817 817 818 819 820 819 820 821 821 822 823 825 825 825 825 826 826 826 826 826 827 827 826 826 828 829 830 831 833 834 835 838 840 842 845 847 848 849 850 850 852 854 855 855 856 856 857
848 843 839 840 841 838 837 839 838 834 834 836 837 837 837 839 838 832 827 828 829 827 824 824 826 821 816 815 817 819 819 817 817 816 814 815 814 814 813 813 813 814 816 817 817 818 819 820 821 821 822 823 823 823 823 824 824 824 825 827 827 826 826 827 829 830 830 832 834 836 838 840 841 843 846 847 849 850 850 851 853 854 856 856 856 857
847 842 840 840 838 839 839 839 838 836 837 838 837 837 836 836 837 835 834 835 830 828 827 826 826 819 812 813 812 814 819 817 817 818 816 815 813 813 813 811 810 810 811 813 814 815 816 817 818 819 820 821 821 822 822 822 822 823 824 826 827 827 826 827 829 830 830 831 833 835 838 840 841 843 845 846 848 849 849 850 852 854 855 856 857 858
845 842 842 840 839 840 841 840 839 839 840 840 836 834 835 834 836 837 839 839 833 829 825 825 828 816 805 811 811 812 819 814 812 816 815 813 812 813 813 810 808 808 808 809 810 811 813 814 816 817 819 819 819 820 821 821 822 822 824 825 826 827 827 828 829 829 830 831 833 834 835 836 838 841 844 845 846 847 848 849 851 853 855 856 857 858
846 845 843 843 842 842 843 842 841 840 844 844 837 835 837 835 837 837 837 839 837 832 826 827 834 824 810 810 807 807 812 808 808 813 810 810 810 810 809 807 807 806 806 807 807 809 810 811 813 815 816 817 817 819 820 820 821 822 823 824 826 827 827 828 829 829 831 833 835 835 835 834 835 838 842 844 846 847 847 848 849 852 854 856 857 859
847 846 844 845 844 844 845 844 841 841 846 844 837 837 836 833 835 835 836 840 838 834 831 828 833 835 824 809 801 805 809 807 810 811 807 807 806 804 803 803 804 804 803 804 804 805 807 808 809 811 813 814 816 817 819 820 821 822 823 824 825 826 826 827 828 829 831 833 835 836 837 838 837 838 840 843 845 847 848 848 848 850 854 857 858 859
850 847 847 848 848 847 844 842 841 841 844 841 838 840 837 834 836 835 838 840 840 842 837 828 831 837 828 806 798 809 813 806 802 801 800 800 801 799 798 798 799 800 800 801 802 802 803 805 807 808 810 812 814 816 817 818 820 821 822 824 825 825 826 827 828 829 830 832 833 834 836 838 840 841 842 844 845 847 848 848 849 851 854 856 858 860
849 848 849 850 851 849 843 841 842 842 842 840 840 841 838 837 837 837 840 837 842 848 834 824 830 834 824 804 798 807 809 801 792 788 788 788 790 792 791 791 792 794 797 798 799 800 801 804 806 807 809 811 813 814 816 817 819 820 821 823 824 824 825 826 827 828 829 831 833 834 834 837 839 841 843 844 846 847 848 849 850 851 854 856 858 861
849 849 850 849 847 846 843 842 843 842 841 839 841 840 836 839 839 841 845 841 846 844 823 815 824 833 828 798 783 788 787 784 781 777 777 777 780 783 783 784 785 787 791 793 795 797 800 803 805 806 808 809 811 812 815 816 817 819 820 821 822 823 824 825 826 827 828 830 832 833 834 835 838 840 841 842 843 846 847 848 849 850 853 856 858 860
849 849 849 846 844 844 845 845 843 842 842 841 842 841 839 842 842 844 849 848 851 840 819 815 821 835 830 786 764 773 771 770 773 769 767 767 770 775 777 778 778 779 783 787 792 794 797 801 802 804 805 807 810 810 812 814 815 817 819 820 821 822 823 824 825 826 827 829 830 831 834 836 837 838 839 839 841 843 845 847 848 849 851 854 857 859
843 847 851 846 842 844 845 847 845 840 841 843 845 846 850 858 855 851 853 855 855 838 822 824 825 825 813 776 761 770 767 764 765 762 760 758 759 765 770 773 774 775 778 781 786 790 793 796 798 800 802 804 806 807 809 811 813 815 817 818 820 820 822 823 824 825 826 828 829 831 834 836 836 837 838 839 840 842 844 845 846 848 851 853 855 857
838 843 853 846 840 841 842 845 843 839 841 844 845 846 852 862 861 857 860 861 852 831 816 823 827 816 795 768 758 759 756 756 755 754 754 750 751 755 759 765 769 772 775 777 780 784 787 790 793 796 798 800 802 804 806 808 810 813 815 816 818 820 821 822 823 824 826 827 829 832 834 835 836 837 838 839 840 842 843 845 846 848 851 852 854 855
838 830 838 838 834 837 839 840 838 837 841 843 844 845 847 851 850 849 853 848 837 827 819 823 823 805 779 757 748 748 747 748 747 745 746 744 744 747 752 760 765 767 770 772 775 778 780 784 789 792 795 797 799 801 803 806 808 810 812 814 816 818 820 821 822 824 825 827 830 832 834 835 836 837 838 840 841 842 844 845 847 849 851 852 853 854
849 832 830 834 834 836 835 836 836 835 839 843 845 847 846 844 840 842 845 839 837 837 827 820 808 783 762 746 740 742 741 741 742 739 739 739 738 743 751 756 760 761 763 767 770 773 777 781 785 789 793 795 797 799 800 803 805 807 809 812 814 816 818 820 821 822 824 827 829 832 833 835 836 837 838 839 841 843 844 846 848 850 851 852 853 853
850 834 830 836 837 835 832 831 834 833 834 841 846 843 840 839 835 840 845 839 843 841 817 804 794 773 760 746 733 736 736 733 737 736 735 734 734 741 746 749 754 755 757 762 765 769 773 778 782 786 789 792 794 796 797 799 802 804 807 809 812 815 817 818 820 821 824 826 828 830 832 833 835 836 837 839 840 842 843 846 848 850 852 853 853 853
847 835 828 834 834 832 834 833 833 832 830 836 841 836 834 837 835 839 844 836 839 837 810 793 786 773 769 754 732 734 738 731 729 730 731 730 731 737 740 742 746 748 751 756 761 767 771 774 778 782 785 789 792 794 795 797 801 803 805 807 809 812 814 816 818 820 822 824 826 829 830 832 834 835 837 838 839 841 842 844 847 850 852 853 853 853
849 841 828 831 834 832 836 837 834 832 830 831 834 831 832 838 836 837 841 834 832 832 810 790 780 769 765 752 734 734 735 728 723 722 725 727 728 731 733 736 741 743 748 754 757 763 767 771 775 778 783 787 791 794 795 797 800 802 804 806 809 811 813 816 817 819 821 823 825 827 829 831 832 834 836 837 838 839 841 842 845 849 851 852 853 853
848 846 835 832 833 833 835 837 835 831 833 834 833 832 832 834 833 833 834 828 824 823 809 791 777 760 745 736 730 729 724 720 719 718 720 722 723 725 726 731 737 741 745 748 752 757 761 767 772 775 780 785 789 792 795 797 799 801 803 805 808 810 813 815 816 818 820 822 824 826 828 830 831 833 834 835 837 838 838 839 841 845 849 852 853 853
848 849 844 835 832 833 831 830 827 823 829 835 835 834 832 831 831 830 826 820 818 818 810 800 785 753 725 719 722 721 716 714 717 719 718 717 718 720 721 726 732 736 739 742 747 754 759 765 771 775 779 783 788 791 794 796 798 800 802 804 806 809 811 813 814 816 819 821 823 825 826 828 830 832 834 835 836 837 838 838 839 841 845 850 853 853
845 847 845 837 834 831 822 819 820 818 819 824 827 827 825 825 829 831 825 814 812 814 805 801 792 750 714 711 715 714 715 715 718 722 720 715 716 719 721 725 730 734 738 742 747 752 758 764 769 774 778 782 786 789 792 795 797 799 801 802 805 807 809 811 813 815 818 820 822 824 826 828 830 832 833 834 836 837 838 839 839 839 842 848 851 853
840 844 843 836 831 824 815 813 816 817 816 818 819 818 818 821 824 829 826 809 804 805 795 797 795 750 709 709 713 713 718 719 720 724 721 715 715 719 723 727 730 734 739 744 749 753 758 763 768 773 777 781 784 787 790 793 795 797 799 801 803 805 807 810 812 815 817 819 822 824 826 828 830 832 833 835 836 837 838 839 839 840 841 845 849 851
838 841 841 835 825 817 815 816 818 817 818 817 814 813 815 816 813 815 813 805 802 800 792 796 788 741 705 711 718 717 721 721 719 721 719 717 718 720 724 729 731 735 739 744 750 754 758 763 767 771 775 778 782 785 788 791 793 796 797 799 801 803 806 809 811 814 816 818 821 823 825 827 829 831 833 835 836 837 838 839 840 841 842 844 847 849
835 837 838 835 828 819 810 808 813 816 817 816 811 810 811 810 811 810 807 809 807 791 783 791 777 732 705 711 717 717 717 715 715 719 717 717 721 723 726 730 733 736 739 743 749 753 758 761 764 768 771 775 779 783 786 789 791 794 795 797 799 802 805 807 809 812 814 816 819 821 824 826 827 830 831 833 835 836 837 839 839 841 842 844 846 847
833 834 832 832 833 826 805 792 798 808 813 812 807 807 808 808 811 809 807 810 800 778 774 780 763 728 707 706 710 711 712 711 713 718 718 718 722 725 727 730 733 736 739 742 746 750 755 758 761 765 768 772 777 780 783 786 789 791 793 795 797 800 803 805 807 810 812 815 817 819 822 824 825 827 829 831 833 834 836 837 838 840 842 843 845 846
834 834 829 825 825 821 806 794 797 805 808 807 803 803 805 805 806 806 805 799 785 778 774 763 752 739 721 711 710 707 707 708 710 714 718 721 724 726 728 731 734 737 739 741 744 748 752 756 760 763 766 769 774 777 780 783 786 788 790 792 795 798 800 803 805 808 811 813 815 818 820 822 824 826 827 829 830 832 834 836 837 838 840 842 843 845
836 833 827 824 818 811 806 802 803 808 808 804 801 799 797 799 802 804 799 784 777 785 773 745 745 750 731 715 712 709 709 710 710 712 716 721 724 726 729 733 735 738 741 743 745 747 750 754 757 760 763 766 770 774 777 780 783 785 787 789 792 795 798 801 803 806 809 811 813 815 817 820 823 825 827 828 829 831 832 834 836 837 839 841 842 844
836 833 826 824 819 811 810 808 806 809 808 802 799 796 793 795 798 795 788 779 780 783 764 741 744 748 732 720 715 712 715 716 714 715 717 720 724 727 730 733 735 738 741 743 745 747 750 753 755 757 759 762 766 770 773 777 781 783 785 787 790 793 796 799 801 804 806 808 810 812 815 818 821 823 825 827 828 829 831 832 834 836 838 840 842 843
833 829 826 825 821 815 814 811 807 807 805 798 795 792 789 789 789 786 779 776 778 775 759 749 752 746 732 724 718 714 718 721 720 720 720 721 724 727 730 733 734 737 739 740 743 746 748 750 753 755 757 760 763 766 770 774 777 779 782 784 786 790 793 796 799 801 803 805 808 810 813 816 818 821 823 825 826 827 829 830 832 835 837 839 841 843
831 828 826 825 820 812 806 804 803 805 804 798 789 782 782 783 782 781 777 773 775 771 759 756 760 750 729 720 719 719 720 722 720 718 719 722 725 727 729 732 733 735 737 739 740 743 745 747 750 753 756 759 761 764 767 770 773 776 779 781 784 787 790 793 795 798 800 802 805 808 810 813 816 818 820 822 824 825 827 828 830 833 835 837 839 841
832 830 825 824 818 804 799 801 801 801 801 792 774 762 767 775 775 771 768 765 764 761 758 761 761 743 722 716 718 716 715 716 714 714 719 722 725 727 727 729 731 732 734 736 738 741 743 745 747 750 752 756 759 762 765 767 771 774 776 779 782 784 788 791 793 795 797 800 802 805 808 810 813 815 817 819 822 823 825 826 828 831 833 835 837 839
833 828 823 826 817 801 801 805 802 799 786 762 744 738 743 758 766 763 758 756 754 752 752 752 740 722 715 718 716 710 708 708 707 711 715 718 722 725 725 725 728 729 731 733 735 737 740 741 744 746 749 752 755 758 761 765 768 770 773 776 780 782 785 788 790 792 794 797 800 802 805 808 810 812 815 817 819 821 822 824 825 827 829 832 834 836
833 828 826 829 818 802 803 805 801 792 765 732 727 734 735 740 748 748 743 742 744 744 738 731 723 717 718 719 714 710 708 705 706 711 712 713 717 720 721 723 724 725 728 730 732 734 736 738 741 744 747 750 753 757 761 764 766 769 772 775 778 780 782 784 787 789 792 794 796 799 802 805 807 809 812 814 816 818 819 820 822 824 826 829 831 832
830 830 830 832 824 810 809 807 784 757 736 726 733 744 742 741 744 740 735 733 737 740 735 727 721 717 716 717 716 715 712 708 710 712 711 712 713 714 717 719 720 723 725 727 729 731 733 736 738 741 744 746 750 755 759 762 764 767 770 773 775 777 779 781 784 786 788 791 793 796 799 801 803 806 809 811 813 814 815 816 818 820 822 825 826 828
826 828 826 828 827 813 807 798 765 736 731 732 737 745 746 745 745 739 729 720 721 730 733 729 721 716 717 719 718 715 715 715 713 709 708 710 709 709 711 713 715 718 720 721 724 726 728 731 733 735 739 743 747 751 753 756 760 763 766 769 771 773 775 778 780 782 784 786 788 792 795 797 800 802 804 807 809 810 811 812 814 816 819 821 823 825
823 825 823 824 823 813 806 797 774 754 740 723 718 731 735 729 729 730 722 709 705 716 727 722 714 713 716 717 716 717 719 716 709 704 704 707 708 707 707 708 711 714 715 717 719 721 723 726 729 733 737 741 744 746 749 753 756 759 762 765 767 770 772 774 776 777 780 782 785 788 791 793 796 798 801 803 804 805 807 808 810 813 815 817 819 821
822 822 822 818 815 813 812 805 787 760 730 710 711 723 728 727 728 729 725 711 701 710 722 717 707 707 710 712 716 718 716 709 702 700 702 704 707 707 706 707 709 710 712 714 716 719 722 724 727 731 734 737 740 743 746 750 754 757 760 762 764 767 769 769 770 773 776 779 782 785 787 790 792 795 797 798 799 801 803 805 807 809 811 812 815 817
826 826 827 823 819 818 812 802 789 757 723 713 717 721 727 733 731 726 721 708 698 705 718 716 708 707 709 712 716 715 709 703 701 700 702 703 705 707 707 707 707 708 710 711 713 716 718 720 724 728 731 734 736 739 743 747 750 754 756 758 761 763 763 763 765 769 772 775 779 782 784 787 789 791 793 794 795 797 799 802 805 807 810 812 813 816
831 829 832 831 825 822 811 797 786 761 731 720 720 723 731 733 726 722 714 701 697 705 713 713 708 707 710 715 718 713 703 699 700 701 704 706 705 706 706 706 707 707 708 709 711 713 715 718 721 724 727 729 731 735 740 743 747 750 751 753 756 756 755 757 762 767 770 773 776 779 781 784 785 787 789 790 792 795 797 800 804 806 808 810 812 815
834 831 832 829 823 825 818 803 790 764 733 720 720 724 731 730 725 720 706 694 695 700 707 710 706 706 711 713 713 708 702 702 705 705 707 707 704 704 705 706 706 707 707 709 710 711 714 716 718 720 721 723 726 731 735 738 742 744 746 750 750 748 749 755 760 763 766 769 772 774 776 779 780 782 785 788 791 794 797 799 801 803 804 806 809 812
823 826 829 827 821 820 815 807 797 764 724 714 721 727 729 723 714 706 698 695 696 696 702 708 705 706 710 707 706 706 703 705 709 708 708 708 705 704 705 704 705 705 706 708 709 710 713 714 716 718 719 721 725 727 730 734 737 739 742 743 741 740 746 752 755 758 762 764 767 769 772 774 777 779 783 786 789 791 793 795 798 799 801 804 806 808
790 799 813 818 810 806 809 809 791 747 710 709 720 726 726 713 697 693 695 699 699 696 698 703 704 707 708 703 703 706 704 705 708 706 708 709 707 707 706 705 705 705 704 706 707 708 710 712 713 715 716 719 722 724 727 730 732 734 737 734 732 737 744 748 750 754 757 760 762 765 767 769 772 775 778 781 784 786 788 791 794 796 798 800 802 804
764 765 779 788 783 783 791 785 754 715 703 709 705 703 708 703 695 696 695 695 699 699 699 700 700 705 706 701 700 702 702 703 704 703 705 706 705 707 707 706 706 705 704 705 705 706 708 709 710 712 714 716 719 721 724 726 727 731 731 728 729 737 741 744 747 750 752 754 757 759 761 764 767 770 773 775 778 781 784 786 789 792 794 796 798 800
742 739 743 748 749 749 747 735 717 704 709 712 700 692 696 697 698 701 697 692 696 699 701 700 697 700 705 702 699 700 701 701 701 702 703 703 702 704 705 705 705 705 704 705 705 705 706 706 707 710 711 713 715 717 719 721 723 726 724 723 728 734 736 739 743 745 746 749 751 753 756 759 762 764 767 770 772 775 777 780 783 785 787 790 792 793
732 736 734 729 730 728 716 708 709 709 707 706 701 698 698 697 699 701 698 694 694 695 699 700 696 696 701 703 700 699 698 698 699 700 700 701 701 702 703 703 703 703 703 704 704 704 705 706 707 709 709 710 711 712 714 715 717 717 716 718 724 728 730 734 737 739 741 743 745 748 752 754 757 759 761 764 766 768 770 772 775 777 780 783 785 786
729 733 733 728 724 717 701 692 699 702 699 699 699 698 697 697 698 699 697 693 693 694 697 697 696 697 700 701 699 696 694 697 698 697 697 699 698 698 699 700 700 701 701 701 702 703 704 705 707 707 708 708 709 709 710 711 711 711 711 715 720 723 726 729 731 733 736 738 740 744 747 748 751 753 756 759 760 763 765 767 769 771 773 774 776 779
723 726 728 725 720 712 695 685 690 697 695 695 696 695 693 692 693 696 696 694 694 695 695 696 697 698 698 697 696 694 693 695 696 694 695 696 695 696 697 697 697 698 698 698 700 701 702 703 704 704 705 705 706 707 708 708 708 708 710 713 716 718 721 723 724 727 730 732 736 739 740 742 745 748 750 752 754 756 758 759 761 763 763 763 765 768
720 721 718 715 716 712 696 684 690 699 696 689 688 690 688 686 688 692 693 694 695 695 694 694 695 695 694 694 694 693 693 693 693 693 693 693 693 694 694 694 694 695 695 695 696 697 698 699 700 701 701 701 702 704 705 705 706 707 709 711 713 715 717 718 720 723 725 728 731 733 735 737 740 742 745 747 748 749 750 751 753 754 755 756 758 760
713 711 709 711 712 703 686 677 685 694 690 679 677 681 682 681 685 688 690 693 693 690 689 690 690 691 693 692 691 692 692 689 690 691 691 690 690 690 690 691 692 691 692 692 693 694 695 695 695 696 697 697 699 700 701 701 702 704 706 708 711 712 714 715 718 720 721 723 725 727 730 733 735 737 740 742 743 746 747 749 750 750 750 752 754 756
697 693 698 701 694 681 674 676 683 686 681 673 672 677 678 677 680 683 683 686 686 685 685 686 685 686 688 688 688 689 689 687 687 687 687 687 687 686 686 687 688 688 688 689 689 690 691 690 691 692 692 693 694 695 695 696 697 698 701 704 706 709 711 713 715 716 717 719 720 721 724 727 729 732 735 737 739 741 743 745 747 747 747 749 751 754
Wind_Speed
3 3 2 1 2 4 5 4 4 3 2 2 2 1 2 2 4 5 4 5 3 1 3 3 3 4 5 7 7 6 4 4 6 6 6 6 5 5 5 5 6 5 4 5 6 5 4 5 5 6 8 10 10 11 12 13 14 14 16 19 22 24 27 29 30 30 30 31 31 29 27 26 24 23 23 22 22 21 21 20 20 20 20 20 20 19
4 3 2 3 5 5 5 4 1 0 2 3 3 1 3 2 5 5 3 6 4 2 4 2 2 6 7 7 7 5 4 6 9 9 9 9 9 7 7 8 6 4 3 5 6 6 6 6 6 7 9 12 13 13 14 15 16 15 15 18 21 24 25 26 26 28 28 29 30 29 28 27 26 24 23 23 22 22 22 21 20 20 20 20 20 19
4 1 5 5 4 3 4 4 3 2 3 3 1 1 3 2 4 5 4 5 3 2 3 2 3 7 8 7 6 8 8 8 9 10 9 8 9 8 9 9 7 6 5 6 7 8 9 8 8 8 8 11 13 14 14 14 15 16 16 18 20 23 26 25 25 26 27 27 28 29 29 29 27 25 24 24 23 22 22 21 21 20 20 20 20 20
2 3 5 4 1 3 4 5 5 3 3 2 1 1 3 2 1 3 5 5 4 1 3 3 3 6 7 5 5 8 8 6 5 6 6 6 7 8 9 8 8 9 8 8 8 9 10 10 10 10 10 11 12 14 15 16 17 17 18 19 20 23 25 26 25 26 27 28 27 28 30 30 29 27 26 25 24 23 23 22 21 20 19 19 19 19
3 5 4 2 3 3 2 4 4 3 3 3 2 2 3 3 3 4 5 6 6 4 3 3 5 6 5 5 7 5 4 6 6 5 7 7 7 7 6 8 9 10 10 9 9 10 12 12 12 13 13 13 13 14 16 18 19 19 20 20 21 23 24 25 25 25 27 29 29 30 31 29 28 28 27 27 26 24 24 24 22 20 19 19 18 18
5 6 3 4 5 3 1 3 0 3 2 4 2 4 5 4 5 4 4 5 5 5 2 1 2 6 5 5 8 4 3 7 7 6 9 10 8 7 7 9 10 9 10 10 10 11 13 14 14 14 15 15 15 15 16 17 18 20 21 22 22 23 23 24 25 26 28 30 32 33 33 32 31 29 27 28 27 26 26 25 23 21 20 19 18 17
4 4 4 2 2 3 3 3 3 3 2 2 2 3 3 2 0 3 4 3 1 4 3 2 2 6 6 6 9 6 5 9 7 7 12 11 9 9 10 10 9 9 9 9 10 11 13 15 16 16 17 18 17 17 17 17 18 20 22 23 23 23 24 25 24 25 27 29 29 29 29 31 33 31 28 27 27 27 26 26 24 22 20 18 18 17
2 5 6 4 2 2 2 3 3 3 4 2 3 2 0 2 2 1 2 2 2 4 4 2 2 4 6 8 10 6 6 10 8 10 13 11 12 14 13 12 11 11 10 9 10 11 14 17 19 18 18 19 19 19 18 19 20 21 22 23 24 24 25 26 26 27 28 29 28 25 23 25 28 30 30 28 27 27 26 26 25 22 19 17 17 17
1 2 3 3 4 2 3 4 4 3 3 4 5 3 2 1 1 1 1 2 2 3 6 6 1 2 6 7 6 4 5 11 12 13 15 14 14 15 15 15 13 13 11 10 10 11 14 17 19 20 19 19 20 20 19 20 21 22 23 23 23 23 25 26 28 29 29 30 29 27 27 25 25 27 29 28 27 26 25 25 24 23 21 19 17 17
2 2 3 3 0 3 4 5 3 4 2 4 3 2 3 3 1 1 2 2 2 3 11 10 2 2 6 7 7 4 4 10 13 13 14 15 16 16 16 17 15 13 11 10 10 11 15 17 18 19 19 19 21 21 20 20 21 23 24 24 25 25 26 27 28 30 30 30 28 28 29 28 28 29 29 28 27 26 25 25 25 24 22 21 19 18
3 2 3 3 3 4 3 4 3 4 4 2 3 4 5 5 4 3 2 2 3 5 12 8 6 4 6 9 11 8 7 11 12 12 12 12 14 15 16 16 16 14 12 11 10 11 15 18 19 20 19 18 20 21 20 20 21 23 24 24 25 26 26 28 29 30 30 30 29 29 30 31 32 33 33 32 31 29 28 28 27 25 24 22 21 20
5 2 2 3 3 3 1 4 3 2 1 2 4 4 3 5 4 4 4 3 1 7 8 2 6 6 7 12 10 8 10 12 12 13 14 14 13 14 14 14 15 14 13 12 10 10 13 15 18 21 20 19 20 21 21 22 23 24 23 23 24 25 26 28 29 30 30 31 31 31 31 33 34 35 35 35 34 32 30 29 28 27 26 25 24 22
4 2 2 4 3 3 3 1 3 4 2 4 3 4 3 3 4 3 3 1 3 7 6 0 3 3 10 15 11 10 13 15 15 15 16 17 15 13 13 13 13 12 12 12 11 10 11 13 17 21 22 20 22 24 24 24 24 24 23 23 24 25 26 28 29 30 31 31 31 32 33 34 35 36 35 35 34 33 32 31 30 29 28 27 25 22
3 4 2 2 3 3 5 3 2 2 1 3 3 3 3 2 1 2 3 2 4 7 7 2 2 4 8 11 12 15 18 18 17 17 18 18 17 14 13 13 12 12 12 12 12 12 11 14 19 22 22 22 24 26 26 26 26 26 25 25 25 25 26 27 28 30 30 30 30 32 33 34 34 34 34 34 34 33 32 31 30 29 28 26 24 21
2 4 2 3 2 3 6 5 4 3 2 3 4 5 3 4 3 3 3 3 4 5 5 2 2 4 4 4 6 10 13 15 15 16 18 18 17 13 10 10 11 13 13 12 12 13 14 17 21 23 22 23 26 27 27 27 28 28 28 27 27 27 28 28 29 30 30 29 29 29 30 31 31 31 32 31 30 30 29 29 28 27 25 24 23 21
2 4 6 3 2 6 6 4 5 5 1 1 3 4 2 4 4 2 4 5 3 6 5 3 3 6 5 9 11 11 12 13 14 16 16 17 16 10 7 9 12 13 13 12 13 13 14 18 22 23 21 22 25 28 29 29 30 30 30 29 29 30 29 29 30 30 30 29 29 29 29 30 30 30 31 30 30 29 28 28 27 25 24 23 22 21
1 5 6 1 1 6 7 5 6 4 2 1 2 2 3 4 4 1 3 3 1 5 5 3 6 8 6 12 14 12 14 14 14 14 14 16 14 10 9 10 12 13 13 13 13 12 13 18 22 23 23 23 25 28 30 31 31 32 32 32 31 31 30 30 30 31 30 30 30 30 30 30 30 30 30 30 30 29 28 26 25 24 23 22 21 21
1 4 5 3 4 6 3 4 3 4 5 4 3 3 2 2 3 1 3 3 1 5 5 4 10 11 7 8 6 5 10 14 14 13 13 15 12 11 12 12 13 14 15 14 13 12 13 17 22 24 24 24 26 28 30 31 32 32 32 33 33 32 32 31 31 31 31 32 32 31 31 30 30 30 30 30 29 28 27 26 24 23 22 21 21 21
2 2 5 3 4 3 2 2 3 4 4 3 2 2 2 1 1 1 2 3 2 5 5 4 9 10 7 7 8 9 12 15 16 13 11 12 11 12 13 13 13 13 12 12 12 12 12 16 21 24 24 24 26 27 29 30 31 31 32 33 33 33 32 31 31 31 32 32 32 32 32 32 31 31 30 30 29 28 27 26 24 22 22 22 22 22
2 1 4 2 1 1 3 2 3 2 1 0 1 1 1 2 2 1 2 2 2 4 6 5 7 7 7 8 9 13 15 15 15 11 9 11 12 13 12 12 12 12 13 13 13 13 13 16 21 24 25 25 26 27 28 30 31 31 32 32 32 32 31 31 32 33 34 34 34 33 33 32 32 31 31 30 30 29 27 26 25 23 23 23 23 24
2 2 3 2 1 2 1 3 5 4 4 3 3 4 4 2 1 2 3 3 3 4 5 6 8 9 9 6 8 13 15 14 11 9 9 10 10 12 11 11 11 12 14 13 13 12 12 15 21 24 25 25 26 26 28 29 30 31 31 32 33 33 33 33 34 35 35 34 34 34 34 33 32 31 30 30 29 28 27 26 26 25 25 25 25 25
2 2 3 2 3 4 5 5 6 6 6 5 5 6 6 5 2 3 5 4 4 4 4 5 7 13 11 3 6 10 10 10 9 8 10 9 8 9 7 9 10 11 10 10 11 11 11 14 19 22 24 25 25 26 27 28 29 30 31 32 33 33 34 35 35 35 34 33 33 34 34 33 32 31 30 30 29 27 27 28 28 27 27 27 26 25
3 1 3 5 5 7 10 6 4 5 5 4 5 5 4 5 5 4 5 3 3 5 6 5 6 13 10 3 5 7 6 8 8 7 10 8 6 6 6 7 8 9 8 8 9 9 11 15 20 22 22 24 25 26 27 29 29 30 32 33 33 32 34 35 35 33 33 32 31 32 32 31 30 29 29 29 28 28 28 28 28 28 28 28 27 25
3 2 2 5 5 7 7 3 1 2 3 3 5 5 5 6 7 8 6 3 3 4 5 4 6 12 8 3 4 5 4 7 7 5 8 7 3 6 8 7 8 9 10 10 10 9 11 16 19 20 21 23 24 25 27 29 29 30 32 33 32 32 33 34 34 33 32 31 30 30 30 29 29 28 28 28 28 28 28 29 28 28 28 28 27 25
3 2 2 2 5 6 5 2 0 1 3 4 4 4 7 8 8 8 6 3 5 8 8 4 7 11 7 1 2 5 4 6 6 4 4 5 4 5 7 8 8 10 11 12 12 11 12 14 16 18 20 22 23 24 26 28 29 30 31 32 32 31 32 33 33 33 32 31 30 30 30 30 30 29 29 29 29 29 29 29 30 29 28 27 27 26
2 2 3 2 2 4 4 3 3 2 2 3 2 5 8 10 12 9 4 3 7 8 6 5 8 13 14 12 10 9 7 7 7 4 1 4 5 6 7 8 8 9 11 14 14 13 13 12 13 17 21 22 23 25 26 28 29 30 31 32 32 31 32 32 33 33 32 31 31 31 31 31 31 32 31 31 31 31 31 31 31 30 28 28 27 26
0 2 5 6 7 8 8 8 4 1 3 5 6 8 9 10 13 9 4 5 6 5 7 11 12 15 21 21 16 14 13 12 9 4 0 3 5 6 7 7 8 8 10 12 13 13 13 12 13 16 20 23 24 26 27 29 30 31 31 32 32 32 32 32 32 32 31 31 31 31 31 32 32 32 33 33 33 33 33 32 31 30 29 27 27 27
0 3 7 10 13 14 13 14 11 7 10 13 13 13 11 9 10 10 10 10 3 3 10 11 6 10 19 19 17 18 17 15 13 7 4 4 5 6 6 7 8 8 9 10 11 12 14 14 14 16 21 25 26 27 29 29 30 31 32 33 32 32 32 32 32 32 32 32 31 31 32 32 32 33 33 34 34 34 33 32 31 30 29 28 27 27
2 4 5 8 14 15 13 15 14 11 13 15 15 17 16 12 11 13 17 16 8 8 15 12 7 12 18 19 21 20 14 12 13 9 2 5 5 6 7 8 9 10 10 11 12 12 13 13 13 15 21 26 27 28 29 29 30 30 30 31 31 31 32 32 33 33 32 32 32 32 33 33 33 34 34 34 35 35 34 33 31 30 29 29 28 28
3 3 4 5 10 13 12 14 15 13 14 15 17 18 17 15 16 16 18 17 14 16 20 19 18 20 19 19 21 17 11 8 8 4 2 5 6 7 8 9 10 11 12 13 13 13 13 14 14 16 20 24 27 29 30 30 30 31 31 32 33 33 33 33 33 34 33 33 33 33 34 35 35 35 35 35 35 35 34 33 32 31 30 30 29 28
3 2 2 0 5 9 9 11 13 11 11 15 18 18 16 15 15 16 16 13 12 16 20 19 17 18 18 16 14 11 6 3 3 2 1 4 6 7 8 9 10 11 11 12 13 13 13 14 14 14 17 21 24 27 29 30 31 31 30 31 32 33 34 34 34 34 34 34 33 34 36 37 36 36 36 36 35 35 35 34 33 32 31 30 30 29
5 2 3 4 4 7 5 5 8 8 8 13 19 20 16 13 10 10 11 10 11 14 14 11 10 13 13 9 6 6 4 2 3 4 3 4 5 7 9 9 10 11 12 12 12 13 13 14 14 14 17 22 25 27 29 30 29 29 29 30 31 33 33 34 34 34 35 35 35 36 38 39 38 37 36 37 36 36 35 34 34 33 33 32 32 31
5 2 1 2 3 7 5 5 6 8 9 10 12 12 8 8 8 8 7 9 12 10 7 7 8 10 7 3 3 6 6 5 5 5 4 5 6 8 9 10 10 11 12 12 13 14 14 14 15 18 22 25 27 30 31 31 30 30 31 31 31 32 33 34 34 35 36 37 37 38 40 40 39 37 37 37 37 36 36 35 35 35 35 34 34 33
4 5 2 2 2 6 7 8 8 7 6 7 6 5 5 6 9 10 9 10 11 10 7 8 8 8 6 4 6 7 7 6 5 4 5 6 6 7 9 9 10 10 10 11 12 13 13 14 17 21 25 26 28 30 30 30 29 29 29 30 30 32 34 34 35 36 38 39 39 39 41 41 40 38 37 37 37 37 38 37 37 37 37 36 36 36
5 5 2 2 2 4 6 7 6 4 7 9 7 4 5 5 8 10 11 12 11 12 12 12 13 13 10 8 8 7 8 8 6 6 7 6 7 8 8 9 9 9 10 10 12 12 12 14 18 22 26 28 30 30 30 30 30 28 28 29 31 33 34 35 36 38 39 40 40 41 41 42 40 38 37 38 38 38 39 39 39 39 38 38 38 38
6 5 2 2 2 3 3 1 2 7 10 11 7 1 3 3 4 3 8 11 11 12 12 13 15 15 10 8 7 7 7 7 6 6 7 6 7 8 8 9 9 10 11 12 12 14 16 20 23 25 27 29 30 31 33 34 33 31 31 32 34 34 35 35 37 39 40 40 41 41 41 42 41 39 39 39 39 39 40 40 40 40 39 39 38 38
5 4 2 2 3 3 2 3 4 8 12 11 4 2 4 4 5 3 3 8 8 8 9 10 11 11 8 7 7 6 4 3 4 5 6 5 6 8 8 8 8 9 11 12 14 18 21 25 27 27 27 28 30 33 34 35 34 33 32 33 34 35 34 35 37 38 39 39 39 40 40 41 42 40 39 39 40 40 41 41 41 41 40 40 40 41
4 3 4 4 3 2 1 4 5 5 7 6 4 4 3 5 6 6 1 6 7 6 8 8 7 8 6 4 4 4 2 3 3 5 6 5 4 5 7 6 7 8 10 12 15 17 20 24 26 27 28 29 31 34 34 33 34 33 31 31 32 33 34 35 37 38 37 37 38 39 40 41 42 40 40 40 42 43 42 42 42 41 41 42 43 43
3 1 3 2 2 1 3 3 3 4 6 6 5 5 3 5 5 5 4 6 6 5 7 8 6 7 5 3 2 2 4 3 2 5 6 6 5 3 5 6 6 7 11 15 17 18 22 26 27 27 29 29 31 34 34 34 34 33 31 32 33 33 35 37 38 37 37 38 38 40 40 41 40 40 41 42 43 43 43 42 40 39 38 39 40 41
3 1 2 3 5 3 4 3 4 5 8 8 6 5 3 4 4 7 4 7 7 5 7 8 6 6 5 4 2 3 4 2 4 5 6 5 6 3 4 6 6 7 10 14 18 19 22 24 25 26 28 30 33 35 35 35 35 34 33 33 33 35 37 38 37 37 37 38 38 39 39 40 41 42 42 42 42 42 41 39 37 35 36 37 37 38
1 1 2 4 5 5 5 5 4 5 8 10 8 6 5 3 4 4 3 7 5 6 7 7 7 6 5 6 4 2 3 5 5 5 6 5 5 4 2 4 5 7 9 12 16 18 19 22 26 28 31 34 35 35 37 37 34 34 34 32 34 38 39 37 37 38 38 38 38 39 40 41 43 43 42 41 39 37 37 36 35 36 37 37 36 36
3 2 2 3 3 4 5 4 4 7 9 7 6 5 5 4 2 4 7 4 5 8 7 6 6 6 6 7 6 5 5 5 4 5 6 5 5 5 5 3 3 5 7 9 12 15 18 20 23 26 29 31 33 34 37 37 34 34 34 33 37 42 40 38 38 39 39 39 39 40 41 41 42 42 40 39 37 36 36 36 37 37 37 36 36 36
7 5 4 5 4 3 3 3 3 6 6 6 9 5 2 4 5 5 4 2 4 7 7 6 7 6 6 6 6 6 6 6 6 6 5 6 6 6 6 5 3 4 6 7 10 15 19 19 20 24 27 28 31 34 36 37 35 33 33 36 42 42 38 37 39 39 38 39 40 40 41 41 42 41 40 39 39 38 37 37 36 36 36 36 36 35
7 7 4 4 5 5 5 7 7 6 5 8 9 5 6 8 6 3 4 4 4 4 5 6 6 7 7 7 6 6 6 5 6 6 5 6 6 5 6 5 5 6 6 8 11 15 19 19 19 22 25 27 30 34 36 37 35 31 33 39 42 37 34 36 38 37 38 40 40 40 41 41 42 42 41 40 39 39 38 37 36 36 37 37 36 35
9 8 5 4 6 6 6 9 8 4 3 7 6 5 7 8 5 5 6 5 4 4 5 5 6 7 8 7 6 5 5 5 6 5 5 5 6 5 6 6 7 8 9 11 12 14 18 20 20 20 22 26 31 34 36 39 36 33 36 42 39 34 34 37 37 37 39 39 40 41 41 41 41 43 42 42 41 41 40 38 37 38 38 37 37 36
7 6 3 2 3 6 9 10 9 6 4 7 9 7 6 6 4 5 6 5 6 5 5 5 6 7 7 7 6 5 6 7 7 6 6 6 6 6 5 6 8 9 10 10 12 14 18 18 17 17 19 24 29 33 36 39 39 38 42 43 37 35 36 37 38 39 39 39 40 41 40 40 41 42 43 43 43 43 42 41 41 40 39 38 38 38
4 5 4 3 3 5 7 8 11 13 12 10 10 10 8 9 7 6 6 6 6 6 6 7 7 6 6 7 8 8 8 8 7 7 7 6 7 8 7 6 7 8 11 13 13 14 15 15 15 16 18 21 27 33 35 38 40 43 43 39 36 36 37 38 39 40 39 40 40 39 40 41 41 41 42 43 43 42 42 42 42 41 40 40 40 38
3 5 6 8 8 8 10 9 7 7 9 8 8 8 9 11 10 8 8 8 6 5 6 7 6 5 6 7 9 9 9 8 8 9 8 6 7 7 6 7 8 9 12 14 13 13 14 16 16 17 18 21 26 31 34 36 39 42 40 36 35 36 37 39 40 40 39 40 39 39 40 42 42 41 41 42 43 43 43 43 44 43 44 46 45 43
4 5 5 6 7 9 16 17 8 3 10 13 13 12 11 10 9 8 8 7 6 7 8 7 7 8 8 9 9 8 9 9 9 9 8 7 7 7 7 8 9 11 13 15 14 14 16 18 18 19 21 23 26 28 31 34 37 39 39 36 35 35 37 38 39 39 38 39 39 39 40 40 41 41 40 40 42 44 45 46 47 47 48 49 50 49
6 8 5 4 6 10 15 14 6 4 9 15 14 13 14 12 9 8 8 7 8 11 11 10 10 8 8 9 9 8 9 10 9 9 9 8 8 8 9 9 9 11 15 16 15 14 17 19 21 21 22 24 25 26 29 33 36 37 38 36 35 35 37 37 36 36 37 37 37 38 38 37 38 40 40 39 40 41 41 43 46 48 49 48 49 50
12 13 9 8 12 15 14 9 5 5 9 13 9 8 9 9 7 8 10 10 11 12 11 10 10 8 8 10 10 9 10 11 10 9 9 9 9 10 11 11 10 11 15 16 15 15 17 20 21 21 22 25 25 26 29 33 35 36 37 36 35 36 37 36 34 33 34 35 36 38 38 37 38 39 39 39 38 38 37 38 40 45 49 48 46 46
Wind_Direction
57 47 6 265 272 296 295 270 234 226 180 157 104 97 294 294 290 293 284 293 341 15 272 218 208 247 236 234 229 219 222 223 221 207 199 209 213 215 223 227 221 219 211 183 187 200 193 186 182 179 178 177 173 171 173 172 166 156 154 157 155 154 154 152 152 152 153 153 152 151 149 146 144 146 148 148 147 147 148 149 149 148 146 149 152 153
51 52 272 226 227 266 301 302 260 161 85 95 98 28 324 278 267 275 266 295 343 45 272 209 201 266 248 237 232 215 218 226 222 213 209 209 205 208 215 220 221 210 169 173 195 202 196 194 191 187 181 178 175 174 176 173 172 167 161 159 156 156 156 153 153 153 152 153 156 158 154 149 145 144 146 144 144 146 147 148 150 148 145 147 149 150
26 315 260 240 236 297 340 16 40 61 74 69 81 17 319 288 279 291 287 302 354 58 284 246 217 262 256 243 228 209 211 225 224 218 219 217 211 210 209 211 207 199 188 192 202 203 200 198 193 194 191 187 180 176 178 178 177 172 168 167 163 162 162 162 163 160 158 157 160 162 158 154 149 145 145 143 142 145 146 146 147 146 145 146 147 147
6 266 258 246 282 14 347 6 29 34 53 43 357 340 289 288 315 300 301 319 333 286 267 275 270 268 269 271 244 222 223 246 260 248 250 239 224 224 219 214 204 201 201 198 200 200 200 198 197 197 196 194 186 180 178 179 181 177 174 174 170 167 167 168 168 165 163 160 160 159 155 155 152 148 147 143 141 143 143 142 142 143 143 144 144 144
248 256 277 323 33 56 315 339 27 43 358 312 258 226 258 286 250 242 285 328 337 310 248 268 302 287 270 264 254 250 253 263 266 270 275 259 240 243 243 233 217 208 201 195 196 195 194 196 198 198 197 194 188 186 184 179 180 181 180 180 175 172 171 171 171 168 166 162 159 154 149 149 146 144 146 144 140 141 141 139 138 138 139 140 140 140
264 270 317 346 2 45 33 315 55 116 349 319 260 229 242 258 254 267 320 353 358 327 287 173 294 286 290 275 260 281 303 255 239 226 248 252 246 246 245 236 225 216 206 198 196 192 192 193 193 196 198 195 189 190 189 183 182 181 181 183 181 178 176 175 173 170 166 162 160 156 153 151 146 142 146 148 145 143 142 139 137 137 138 138 136 134
282 319 12 2 334 24 20 302 247 130 77 320 262 223 207 174 0 346 5 44 54 289 294 120 219 272 299 291 262 258 248 248 243 226 234 238 236 235 234 233 229 223 213 201 198 193 191 189 188 192 196 194 191 189 188 186 185 182 179 180 182 181 178 178 177 173 169 164 160 159 158 156 152 148 148 150 150 147 145 142 141 141 140 141 140 137
302 348 10 26 32 12 330 283 258 131 108 252 252 225 207 53 32 353 47 72 227 275 292 227 198 266 280 268 251 235 235 252 255 246 243 233 228 230 229 228 225 223 216 204 202 196 193 191 188 189 191 192 190 186 186 186 186 184 182 181 181 178 176 175 175 174 174 172 167 164 159 154 153 150 147 149 149 147 145 143 142 142 141 142 142 142
298 358 355 28 31 340 242 240 235 130 115 255 259 286 323 15 242 223 58 283 281 359 293 258 154 250 263 265 255 211 227 257 252 241 241 233 227 227 227 226 221 220 218 209 206 201 197 194 190 187 185 187 188 185 184 184 183 183 183 183 182 180 178 176 175 174 175 175 172 169 162 154 151 148 146 147 147 146 146 143 140 141 142 143 143 144
254 206 184 123 335 254 238 244 218 139 178 258 273 332 356 27 0 37 55 284 28 7 269 256 149 224 266 271 258 227 218 247 248 241 235 228 224 221 220 220 218 214 213 211 208 203 198 194 190 186 180 182 186 184 183 181 181 180 179 180 180 181 179 178 178 178 178 178 176 171 165 158 152 149 148 147 147 147 148 146 145 145 144 144 144 144
282 263 191 160 223 216 223 264 228 182 220 289 31 23 5 5 8 29 36 51 53 284 265 244 165 178 271 263 241 231 224 224 234 245 242 230 223 220 218 215 212 208 205 206 203 197 193 189 186 182 178 181 184 183 183 182 181 180 178 178 178 178 178 176 178 179 178 179 177 173 170 166 160 156 154 153 151 151 152 150 149 150 149 149 149 148
332 344 225 250 243 179 198 291 293 270 247 53 52 51 13 337 357 15 2 38 155 258 273 224 150 163 244 257 243 232 237 229 229 241 245 240 227 220 219 213 209 206 199 195 194 189 182 179 180 179 177 180 183 183 184 184 182 181 181 180 179 178 178 177 177 177 176 176 175 174 172 171 167 164 161 158 156 156 156 154 152 152 153 153 154 153
327 253 240 302 283 163 140 300 314 335 47 86 71 65 47 337 0 359 323 354 219 253 280 210 132 185 244 261 264 248 243 237 233 235 239 241 233 221 216 211 209 206 197 190 188 186 179 178 181 180 178 179 182 185 185 185 184 183 184 183 181 180 179 178 177 177 175 174 175 174 174 173 170 167 166 163 161 161 162 161 158 157 156 155 155 155
338 303 300 338 302 173 144 156 270 299 124 136 140 116 113 105 37 275 269 290 261 274 288 226 167 264 265 268 257 242 242 239 235 235 236 238 235 224 213 204 201 200 197 193 187 185 185 185 183 182 181 180 182 185 184 184 184 183 183 183 182 181 180 180 179 177 176 174 175 175 174 172 168 167 168 166 165 165 164 162 160 160 160 159 159 160
87 311 254 187 243 174 176 190 171 151 162 179 154 136 144 151 169 223 225 243 263 285 284 189 155 238 250 266 230 219 235 239 236 236 234 236 235 225 208 194 192 197 198 195 190 189 188 184 182 183 183 181 182 183 182 183 183 182 183 183 182 181 180 181 180 178 177 176 175 174 173 170 168 168 168 167 167 165 164 163 163 163 164 164 163 162
122 266 247 225 178 162 185 199 149 124 104 234 141 120 176 186 172 214 213 211 262 298 273 210 220 233 248 284 272 254 257 250 242 239 234 237 233 210 186 185 191 197 197 193 192 191 186 180 180 183 183 182 182 182 181 182 182 182 182 182 182 180 180 181 180 178 177 176 174 173 173 172 171 171 170 168 168 168 167 167 167 167 167 167 164 163
52 281 264 273 218 194 190 181 170 161 145 180 166 162 213 183 151 217 256 233 279 285 262 213 254 268 283 286 272 258 263 260 251 244 237 238 227 196 188 192 191 195 194 192 192 189 182 177 179 182 183 182 183 182 182 182 183 183 182 181 181 180 180 180 179 178 177 176 175 175 175 174 174 173 172 171 170 169 168 168 169 168 168 168 166 164
147 283 264 195 234 249 198 161 205 205 161 148 184 204 178 137 129 139 269 285 254 263 266 226 256 274 281 279 275 252 258 263 260 249 238 237 219 195 202 198 192 193 188 187 185 180 179 178 178 181 183 184 185 184 182 182 183 183 182 181 180 180 180 180 179 178 178 177 176 177 177 176 176 176 175 175 174 172 170 169 170 170 169 169 168 167
117 307 287 217 219 279 66 111 271 260 201 171 195 205 135 174 246 162 226 262 236 263 280 241 251 264 249 251 274 272 263 265 267 259 244 235 213 200 207 200 192 189 181 180 180 177 179 180 178 177 178 182 184 184 183 182 182 182 182 182 181 180 180 179 179 179 179 179 178 179 180 179 180 180 180 180 178 176 174 171 171 172 173 173 173 171
93 116 291 307 211 250 75 137 231 256 222 161 304 249 157 214 259 231 238 254 234 265 288 284 276 269 243 235 253 263 265 266 270 266 245 230 212 205 206 196 187 181 179 182 182 180 177 176 176 174 175 178 181 183 183 181 181 181 181 180 180 180 180 180 181 182 181 182 181 181 182 183 184 185 185 184 182 179 177 174 174 176 179 179 177 175
78 193 256 336 283 224 186 194 201 189 161 164 220 224 208 198 199 266 249 229 241 274 289 290 291 280 265 234 227 248 260 268 277 273 257 240 218 211 204 190 184 183 185 183 177 175 170 168 171 171 173 175 177 181 182 181 182 181 180 180 180 180 181 183 184 184 183 183 184 184 184 185 185 185 185 184 183 182 179 178 177 178 180 180 178 175
153 211 242 281 259 230 232 219 202 200 182 178 200 207 213 204 178 266 260 222 220 236 250 267 285 283 277 211 201 240 254 270 279 270 267 257 221 214 200 181 181 179 181 177 168 165 160 161 165 166 169 172 175 179 182 182 182 182 181 182 181 182 185 186 185 184 184 183 185 186 186 185 184 184 183 182 183 183 181 181 179 178 178 178 178 177
160 175 259 263 253 250 253 243 209 215 210 212 222 199 198 198 189 223 245 241 224 221 241 253 264 276 275 166 192 242 254 273 276 260 264 262 214 186 164 158 163 159 158 157 156 155 154 157 161 163 166 171 176 179 181 183 184 184 184 183 183 186 188 187 186 185 185 185 186 187 185 184 182 181 182 182 184 185 183 183 181 179 178 178 178 178
156 158 259 273 276 277 273 262 129 187 188 232 241 202 186 201 205 215 230 282 299 241 242 253 255 269 274 152 198 251 264 276 286 264 248 245 190 151 149 148 148 147 145 145 149 151 151 155 159 163 168 172 177 180 182 185 186 186 187 185 186 188 188 188 187 186 187 186 186 185 184 183 182 181 181 182 184 185 184 183 180 179 180 179 179 179
181 173 196 282 310 320 334 10 26 217 186 224 241 209 210 219 222 236 247 283 287 255 239 243 257 263 265 216 266 291 302 294 305 301 233 194 166 151 148 149 151 150 148 148 152 154 156 161 163 167 172 174 178 181 182 185 188 188 188 188 189 189 189 189 188 188 188 187 186 185 185 185 184 184 185 185 187 187 186 184 182 182 183 182 181 181
198 191 177 194 267 281 287 258 226 212 200 223 231 209 216 219 219 232 245 237 252 256 238 227 250 271 284 292 297 305 312 308 310 324 45 144 157 156 149 154 157 156 157 158 158 159 163 168 168 169 172 175 178 181 183 186 189 190 190 190 191 190 189 190 190 189 189 188 187 186 187 186 186 186 188 188 189 188 187 185 184 184 185 185 184 183
281 241 214 212 219 231 248 250 241 280 276 266 259 235 221 216 217 222 232 231 242 281 277 253 249 273 286 291 300 311 315 318 321 318 194 145 154 156 153 157 158 160 164 163 161 163 166 169 171 172 173 176 179 183 186 188 190 191 190 191 192 192 191 190 189 189 189 189 188 187 187 187 187 188 189 190 190 189 188 187 187 187 186 187 187 186
207 260 229 225 235 241 253 263 271 289 279 270 271 264 248 224 209 212 228 232 232 321 273 257 234 260 278 288 301 307 313 322 323 305 236 183 161 155 148 150 157 159 163 166 168 170 170 171 174 174 176 179 181 184 188 190 193 193 191 191 192 192 192 190 189 189 189 189 189 189 189 189 189 190 191 191 190 189 188 188 189 189 188 189 190 190
169 257 237 225 244 251 257 267 272 272 266 263 264 264 260 244 217 217 232 234 221 237 253 263 278 274 279 290 294 298 308 316 312 305 231 161 147 145 148 155 164 166 168 175 177 176 176 177 179 180 181 182 183 184 188 191 194 195 193 193 192 192 192 191 190 190 190 190 191 190 190 189 190 191 192 192 190 189 190 190 190 191 191 191 192 192
163 255 251 228 254 260 255 261 264 261 265 267 262 256 255 250 234 229 239 237 224 236 251 263 275 277 277 279 282 291 308 308 304 325 112 144 149 153 161 168 174 176 177 180 180 180 182 184 186 187 186 186 185 185 187 190 194 195 194 193 192 192 193 192 191 191 191 191 192 191 190 190 190 192 192 192 192 191 191 191 191 192 192 193 193 194
190 255 309 214 278 271 250 251 258 258 263 268 268 259 246 245 244 238 243 241 229 239 250 256 269 274 271 270 275 288 305 314 308 323 156 172 167 165 173 179 182 184 184 186 186 184 186 189 189 189 189 190 190 189 189 192 195 196 195 193 192 192 192 192 192 192 192 192 193 192 192 191 191 192 193 193 192 192 191 191 191 193 193 194 195 196
188 253 4 43 317 283 263 272 283 289 283 271 273 268 246 228 232 232 230 222 214 227 242 250 256 258 261 274 288 283 291 317 281 260 229 210 189 178 184 189 190 191 188 189 188 186 190 193 191 189 190 192 193 193 194 195 195 196 196 194 193 192 191 192 192 193 194 193 192 192 192 192 193 193 193 193 193 192 191 191 192 193 194 195 196 197
164 177 47 63 296 280 292 328 321 322 317 284 265 257 226 199 213 235 245 231 214 210 216 223 231 243 259 302 297 287 309 314 276 242 218 219 207 197 200 197 195 196 193 191 190 190 192 194 195 195 194 193 194 195 196 196 194 196 197 195 193 191 190 192 194 195 195 193 193 193 193 193 194 193 194 194 193 192 191 191 193 194 196 197 198 199
157 149 161 175 246 275 295 324 331 324 297 265 235 193 171 184 203 216 240 237 213 201 216 239 254 267 276 259 246 266 289 285 264 244 227 212 198 205 212 206 200 199 194 193 194 194 194 194 197 198 197 197 198 197 198 198 198 199 197 194 193 191 191 193 195 196 196 194 194 194 194 195 195 194 194 194 193 193 193 193 195 197 198 199 199 200
160 153 179 193 198 271 304 339 339 280 236 252 267 225 203 202 192 209 249 255 229 216 231 253 265 264 262 258 250 253 263 267 272 271 256 225 200 202 208 209 206 197 193 197 198 197 197 196 195 196 197 198 198 196 197 199 200 199 196 194 193 193 194 195 196 196 196 195 196 196 195 196 196 195 195 195 195 195 195 196 197 198 199 200 200 202
156 157 180 180 184 275 315 42 243 266 277 290 305 267 171 147 145 208 277 272 242 217 217 237 255 261 266 269 260 252 257 275 298 286 261 233 213 206 205 207 201 195 196 197 195 195 196 196 197 197 197 196 195 194 196 199 199 197 196 196 195 196 196 197 197 197 197 197 197 196 196 197 197 196 197 196 196 196 197 197 198 199 199 200 202 203
144 145 176 214 210 226 241 228 260 307 312 307 305 163 160 154 155 157 287 276 248 204 192 215 249 266 272 271 273 275 275 314 339 307 278 257 230 219 218 209 193 196 203 199 199 201 200 199 200 199 196 195 195 197 198 198 197 196 196 196 196 197 197 198 199 200 199 199 199 198 198 198 198 198 198 197 197 198 199 200 200 200 200 201 202 204
165 170 176 201 222 178 197 275 304 325 298 274 250 232 195 156 156 142 96 288 264 204 186 200 235 263 270 272 280 290 348 37 1 299 288 292 270 232 226 215 191 193 200 196 196 199 198 199 200 198 196 195 196 199 199 197 196 195 196 196 197 198 199 201 203 203 201 201 201 200 200 200 199 200 199 199 200 201 201 202 202 202 202 202 204 205
155 59 111 160 259 135 147 219 238 241 253 249 249 259 217 161 150 102 41 302 267 202 183 191 223 254 252 229 213 106 76 56 303 269 275 300 305 256 214 212 203 200 203 200 196 194 195 197 197 196 195 194 197 200 199 196 195 195 196 198 198 199 203 205 206 204 203 204 203 203 202 202 201 202 202 202 203 204 204 203 203 203 203 204 206 207
138 86 118 202 240 200 167 217 235 243 254 246 242 255 217 171 121 72 20 282 251 203 179 180 211 237 209 184 173 107 111 164 224 248 263 287 300 271 201 202 207 203 205 204 203 201 198 193 189 187 190 195 199 199 197 195 195 196 199 200 200 204 208 208 207 206 206 206 205 205 205 204 204 205 205 206 206 206 206 204 203 203 203 204 206 206
157 206 190 216 232 207 203 245 268 263 256 242 226 207 180 152 76 83 220 235 213 194 185 179 200 214 177 163 170 187 215 211 211 250 279 299 310 300 244 219 217 213 209 208 207 204 195 188 188 190 194 200 201 197 195 194 194 198 201 201 204 210 211 209 208 208 208 207 206 207 207 206 207 208 208 208 208 207 207 206 204 204 204 204 204 204
176 187 188 198 212 198 203 233 283 284 267 236 189 163 157 149 161 210 221 212 176 180 184 187 202 197 172 173 188 214 246 261 262 273 289 296 292 291 288 271 232 217 211 206 205 199 190 189 193 196 200 202 200 196 195 193 194 200 201 204 211 214 212 209 209 208 207 207 208 208 208 209 209 209 209 210 208 207 208 208 207 205 205 204 203 204
170 169 190 195 182 159 168 193 244 275 259 174 133 121 172 197 207 214 208 188 185 177 170 189 211 195 179 191 211 225 253 283 286 276 277 275 269 277 288 281 251 229 211 196 199 197 191 191 196 200 203 202 199 198 195 194 197 201 202 209 216 215 211 209 209 208 207 208 208 209 209 210 210 210 209 209 208 208 208 208 207 206 205 204 203 203
179 173 186 203 189 160 165 199 216 232 213 170 149 157 205 209 198 164 153 180 217 199 169 190 219 207 190 195 212 223 238 260 268 265 268 270 259 253 266 271 264 256 234 214 210 203 195 196 200 203 204 201 200 199 196 197 200 202 207 216 219 214 209 209 208 207 208 208 209 209 210 210 210 210 209 209 208 208 208 207 205 205 206 205 203 203
203 189 176 190 200 194 198 212 221 225 207 210 216 214 215 221 209 162 165 192 221 207 176 184 217 215 201 200 210 220 227 233 242 245 246 258 262 247 243 248 244 240 236 230 223 211 204 205 206 203 202 202 202 200 200 201 201 202 212 220 218 211 208 207 206 206 208 208 209 210 210 210 210 210 210 209 208 207 207 206 204 204 205 205 204 204
219 197 171 169 221 246 248 238 237 253 247 233 242 241 229 243 235 179 187 219 221 202 184 188 209 210 198 196 203 220 231 226 231 241 236 243 260 254 243 252 251 242 237 234 227 217 212 213 211 205 204 205 204 203 203 204 204 208 216 220 215 209 208 206 204 206 208 209 210 210 209 209 209 210 210 209 209 209 208 206 204 204 204 204 205 206
233 191 196 226 224 237 248 225 216 233 240 233 243 252 246 246 234 194 201 228 217 195 195 205 213 206 187 186 197 219 234 224 222 243 244 236 247 250 242 246 251 243 236 235 232 222 211 209 211 211 210 211 208 207 207 208 209 214 220 219 213 209 208 205 204 206 207 208 209 209 208 208 209 209 209 209 209 210 210 209 207 205 204 204 204 206
217 171 191 224 221 227 252 240 208 238 266 256 244 250 248 243 234 218 223 233 225 215 215 212 208 197 190 200 205 217 233 224 213 231 242 236 240 247 243 240 243 245 244 242 238 224 210 206 212 215 216 218 216 213 212 212 215 219 220 219 214 210 206 205 206 207 207 208 208 208 208 209 209 208 208 209 209 209 210 209 208 207 208 208 207 205
173 173 179 207 214 238 261 258 240 278 293 271 249 243 246 244 233 223 227 232 235 242 241 230 219 208 210 222 217 212 230 235 222 221 231 236 239 238 237 238 238 240 246 247 239 225 214 212 216 218 221 225 225 220 217 218 221 223 222 220 216 210 206 206 206 207 208 208 208 209 209 209 210 209 209 209 210 212 213 212 211 211 213 214 213 212
199 209 184 186 218 234 249 249 217 199 258 261 251 244 247 249 240 225 221 217 222 234 238 237 236 229 225 234 227 209 222 238 235 225 225 232 236 234 233 235 232 233 240 245 242 231 222 221 222 222 226 230 230 226 224 224 225 226 224 222 218 212 209 208 206 207 209 208 208 209 209 209 210 211 211 211 212 214 217 218 218 217 218 218 219 218
226 220 197 206 232 241 246 238 174 176 242 258 254 238 241 244 232 222 221 217 220 228 228 228 234 235 234 236 228 213 218 233 236 229 228 233 234 233 235 235 229 230 235 235 231 227 225 227 227 226 230 235 233 229 230 230 229 228 226 222 218 214 212 209 206 208 210 210 210 211 209 209 211 211 212 213 213 213 215 219 221 223 223 223 222 221